DELTA 1 DEB, 48088

Orbit data source: Space-Track

DELTA 1 DEB, 48088 is space debris in SSO originally from a launch on Thu, 29 Jul 1976 UTC launched from the Air Force Western Test Range (AFWTR). Debris objects in space refer to the collection of defunct objects orbiting the Earth. Examples of debris include non-operational satellites, rocket bodies, and fragments generated from explosions, collisions, or faulty payload assembly.

Loading next visibility...
Identifier
48088, 1976-077GT
Orbit
SSO
Country
Flag of USUS
Related business
Manufacturer
Unknown
Mission
Spacecraft
Bus & Motor
Unknown
Mass
Unknown
Launch date (UTC)
1976-07-29 (50 years ago)
Launch vehicle
Unknown
Launch site
Air Force Western Test Range (AFWTR)
Object type
Payload
Rocket body
Debris
Shape & HBR
Unknown shape, 0.1 m
Radar Cross Section
Small (<0.1 m²)

Expand to show TLE details & history
Last TLE update: 1 week ago

TLE from 1 week ago
0 DELTA 1 DEB
1 48088U 76077GT  26025.86365219 -.00000043  00000-0 -18153-5 0  9992
2 48088 102.0796  64.0528 0115452 240.1417 307.3361 12.19248551542155
Epoch: 2026-01-25T20:43Z
TLE epoch observation values (Epoch: 2026-01-25T20:43:39.549Z)
Latitude
-6.41175°
Longitude
166.59901°
Altitude
1,544.233 km
Speed
7.119 km/s
True Right ascension
16h 10m 43s
True Declination
-6° 22' 39"
Sunlit
Object was in daylight at epoch
Visualization orbit readout
Latitude
Unknown
Longitude
Unknown
Altitude
Unknown
Speed
Unknown
Apparent Right ascension
Unknown
Apparent Declination
Unknown
Sunlit
N/A
Visualization observer readout
Local Sidereal Time
02:45:42
Azimuth
Unknown
Elevation
Unknown
Doppler factor
Unknown
Orbital elements
Apogee altitude
1,685.456 km
Perigee altitude
1,501.389 km
Semi-major axis
7,971.559 km
Eccentricity
0.01155
Inclination
102.0796°
RAAN
64.0528°
Arg. of periapsis
240.1417°
True anomaly
306.27498°
Mean anomaly
307.3361°
Eccentric anomaly
306.80647°
Mean motion
3.0495 °/min
Orbital period
118.05 mins
BSTAR
-0.0000018153
Loading maneuver chart data...
Computing Atmospheric mass density...
Loading historical data...
Loading historical data...
Loading historical data...
Loading historical data...
Loading historical data...
Loading historical data...
Loading historical data...

Documentation

Showing up to 5 results
|